Location: Evergreen Manor
(41.4083°N, 81.4939°W)
Time: 06:13:35
(UTC+00:00)

Cosmos 2221 Rocket - Pass Details

Date: 11 December 2019
Orbit: 620 x 648 km, 82.5° (Epoch: 17 January)

Event Time Altitude Azimuth Distance (km) Brightness Sun altitude
Exits shadow 10:57:53 - 355° (N) 2,479 6.5 -18.8°
Reaches altitude 10° 10:59:05 10° 357° (N) 1,997 6.0 -18.6°
Maximum altitude 11:03:29 68° 81° (E) 672 3.9 -17.8°
Drops below altitude 10° 11:07:51 10° 165° (SSE) 1,985 6.6 -17.0°
Sets 11:10:05 0° 167° (SSE) 2,890 7.4 -16.6°
